Tracking 35237 objects as of 4-Sep-2026
HD Live streaming from Space Station
objects crossing your sky now

SL-6 R/B(2)


SL-6 R/B(2) is no longer on orbit


NORAD ID: 18983
Int'l Code: 1988-022D
Launch date: March 17, 1988
Source: Commonwealth of Independent States (former USSR) (CIS)
Launch site: PLESETSK MISSILE AND SPACE COMPLEX (PKMTR)
Decay date: 2002-01-23

Note: This is a ROCKET BODY
Your satellite tracking list
Your tracking list is empty




NASA's NSSDC Master Catalog

Two Line Element Set (TLE):
1 18983U 88022D   01273.82187726 +.00010695 -33742-6 +78144-3 0  9997
2 18983 061.9817 149.8185 7551550 260.3043 015.8521 01.97453180097326
Source of the keplerian elements: AFSPC